Flag for Belarus Weather past 2 weeks in Gomel, Belarus

Now
66 °F

Sunny.


Feels Like: 66 °F
Forecast: 48 / 62 °F
Wind: 13 mph from Southwest

Location: Gomel'

Current Time: Sep 20, 2014 at 3:43:14 PM

Latest Report: Sep 20, 2014 at 3:00 PM


Visibility: 10 mi

Pressure: 30.18 "Hg

Humidity: 28%

Dew point: 32 °F

Location of GomelLocation

Historic Weather in Gomel — Graph

°F

Gomel temperature yesterday

Maximum temperature yesterday: 66 °F (at 3:00 PM)
Minimum temperature yesterday: 41 °F (at 8:00 AM)
Average temperature yesterday: 57 °F

Past Weeks' High & Low Weather Summary

 TemperatureHumidityPressure
High79 °F (Sep 13, 4:00 PM)100% (Sep 8, 4:00 AM)30.42 "Hg (Sep 8, 4:00 AM)
Low37 °F (Sep 18, 7:00 AM)23% (Sep 20, 2:00 PM)30.01 "Hg (Sep 9, 5:30 PM)
Average60 °F63%30.21 "Hg
* Reported Sep 5 2:00 PM — Sep 20 2:30 PM, Gomel, Weather by CustomWeather, © 2014

Note: Actual official high and low records may vary slightly from our data, if they occured in-between our weather recording intervals... More about our weather records

Advertising

Gomel weather history for previous 24 hours

 ConditionsComfort  
Time TempWeatherWind HumidityBarometerVisibility
2:30 PM
Sep 20
68 °FSunny.15 mph23%30.18 "Hg10 mi
2:00 PM68 °FSunny.13 mph23%30.21 "Hg10 mi
1:30 PM66 °FSunny.13 mph24%30.21 "Hg10 mi
1:00 PM66 °FSunny.10 mph24%30.21 "Hg10 mi
12:30 PM66 °FSunny.10 mph26%30.21 "Hg10 mi
12:00 PM66 °FSunny.10 mph26%30.24 "Hg10 mi
11:30 AM63 °FSunny.13 mph37%30.24 "Hg10 mi
11:00 AM63 °FSunny.8 mph37%30.24 "Hg10 mi
10:30 AM55 °FSunny.8 mph44%30.24 "Hg10 mi
10:00 AM55 °FSunny.8 mph44%30.24 "Hg10 mi
9:30 AM46 °FSunny.6 mph57%30.24 "Hg10 mi
9:00 AM46 °FSunny.3 mph57%30.24 "Hg10 mi
8:30 AM43 °FSunny.3 mph66%30.24 "Hg10 mi
8:00 AM43 °FSunny.3 mph66%30.24 "Hg10 mi
7:30 AM39 °FClear.3 mph75%30.24 "Hg10 mi
7:00 AM39 °FClear.6 mph75%30.24 "Hg10 mi
6:30 AM39 °FClear.6 mph81%30.24 "Hg10 mi
5:00 AM41 °FClear.6 mph81%30.24 "Hg10 mi
4:00 AM41 °FClear.3 mph76%30.27 "Hg10 mi
3:00 AM43 °FClear.3 mph71%30.27 "Hg10 mi
2:00 AM45 °FClear.6 mph71%30.27 "Hg10 mi
1:00 AM45 °FClear.6 mph71%30.27 "Hg10 mi
12:00 AM48 °FClear.3 mph62%30.30 "Hg10 mi
11:00 PM
Sep 19
48 °FClear.3 mph62%30.30 "Hg10 mi
10:00 PM52 °FClear.3 mph58%30.30 "Hg10 mi
9:00 PM55 °FClear.3 mph51%30.30 "Hg10 mi
8:00 PM57 °FSunny.3 mph44%30.30 "Hg10 mi
7:30 PM61 °FClear.1 mph39%30.30 "Hg6 mi
7:00 PM61 °FClear.1 mph39%30.30 "Hg4 mi
6:30 PM64 °FSunny.3 mph34%30.30 "Hg10 mi
6:00 PM64 °FSunny.3 mph34%30.30 "Hg10 mi
5:30 PM64 °FSunny.3 mph34%30.33 "Hg10 mi
5:00 PM64 °FSunny.3 mph34%30.33 "Hg10 mi
4:30 PM66 °FSunny.6 mph32%30.33 "Hg10 mi
4:00 PM66 °FSunny.6 mph32%30.33 "Hg10 mi
3:30 PM66 °FSunny.6 mph32%30.33 "Hg10 mi
3:00 PM66 °FSunny.8 mph32%30.36 "Hg10 mi
Weather by CustomWeather, © 2014

See weather overviewHow to use our weather pages